Time,TemperatureF,DewpointF,PressureIn,WindDirection,WindDirectionDegrees,WindSpeedMPH,WindSpeedGustMPH,Humidity,HourlyPrecipIn,Conditions,Clouds,dailyrainin,SoftwareType,DateUTC
2013-07-03 00:02:00,64.4,64.1,30.06,ESE,112,0.0,-999.0,99,-99.99,,,0.00,Acu-Link.com,2013-07-03 04:02:00,
2013-07-03 00:17:00,64.4,64.1,30.06,ESE,112,0.0,-999.0,99,-99.99,,,0.00,Acu-Link.com,2013-07-03 04:17:00,
2013-07-03 00:32:00,62.6,62.3,30.06,ESE,112,0.0,-999.0,99,-99.99,,,0.00,Acu-Link.com,2013-07-03 04:32:00,
2013-07-03 00:48:00,62.6,62.3,30.06,ESE,112,0.0,-999.0,99,-99.99,,,0.00,Acu-Link.com,2013-07-03 04:48:00,
2013-07-03 01:03:00,62.6,62.3,30.07,ESE,112,0.0,-999.0,99,-99.99,,,0.00,Acu-Link.com,2013-07-03 05:03:00,
2013-07-03 01:18:00,62.6,62.3,30.06,ESE,112,0.0,-999.0,99,-99.99,,,0.00,Acu-Link.com,2013-07-03 05:18:00,
2013-07-03 01:33:00,62.6,62.3,30.06,ESE,112,0.0,-999.0,99,-99.99,,,0.00,Acu-Link.com,2013-07-03 05:33:00,
2013-07-03 01:48:00,62.6,62.3,30.06,ESE,112,0.0,-999.0,99,-99.99,,,0.00,Acu-Link.com,2013-07-03 05:48:00,
2013-07-03 02:04:00,62.6,62.3,30.06,ESE,112,0.0,-999.0,99,-99.99,,,0.00,Acu-Link.com,2013-07-03 06:04:00,
2013-07-03 02:19:00,62.6,62.3,30.05,ESE,112,0.0,-999.0,99,-99.99,,,0.00,Acu-Link.com,2013-07-03 06:19:00,
2013-07-03 02:34:00,62.6,62.3,30.06,ESE,112,0.0,-999.0,99,-99.99,,,0.00,Acu-Link.com,2013-07-03 06:34:00,
2013-07-03 02:50:00,62.6,62.3,30.05,ESE,112,0.0,-999.0,99,-99.99,,,0.00,Acu-Link.com,2013-07-03 06:50:00,
2013-07-03 03:05:00,62.6,62.3,30.05,SE,135,0.0,-999.0,99,-99.99,,,0.00,Acu-Link.com,2013-07-03 07:05:00,
2013-07-03 03:20:00,62.6,62.3,30.05,WNW,292,0.0,-999.0,99,-99.99,,,0.00,Acu-Link.com,2013-07-03 07:20:00,
2013-07-03 03:35:00,62.6,62.3,30.05,NNE,22,0.0,-999.0,99,-99.99,,,0.00,Acu-Link.com,2013-07-03 07:35:00,
2013-07-03 03:50:00,62.6,62.3,30.05,SSE,157,0.0,-999.0,99,-99.99,,,0.00,Acu-Link.com,2013-07-03 07:50:00,
2013-07-03 04:21:00,62.6,62.3,30.05,ESE,112,0.0,-999.0,99,-99.99,,,0.00,Acu-Link.com,2013-07-03 08:21:00,
2013-07-03 04:51:00,62.6,62.3,30.05,SSW,202,0.0,-999.0,99,-99.99,,,0.00,Acu-Link.com,2013-07-03 08:51:00,
2013-07-03 05:21:00,62.6,62.3,30.06,SE,135,0.0,-999.0,99,-99.99,,,0.00,Acu-Link.com,2013-07-03 09:21:00,
2013-07-03 05:37:00,62.6,62.3,30.07,ENE,67,0.0,-999.0,99,-99.99,,,0.00,Acu-Link.com,2013-07-03 09:37:00,
2013-07-03 05:52:00,62.6,62.3,30.07,SSE,157,0.0,-999.0,99,-99.99,,,0.00,Acu-Link.com,2013-07-03 09:52:00,
2013-07-03 06:07:00,62.6,62.3,30.07,East,90,0.0,-999.0,99,-99.99,,,0.00,Acu-Link.com,2013-07-03 10:07:00,
2013-07-03 06:22:00,62.6,62.3,30.08,NE,45,0.0,-999.0,99,-99.99,,,0.00,Acu-Link.com,2013-07-03 10:22:00,
2013-07-03 06:53:00,64.4,64.1,30.09,South,180,0.0,-999.0,99,-99.99,,,0.00,Acu-Link.com,2013-07-03 10:53:00,
2013-07-03 07:08:00,64.4,64.1,30.09,SSE,157,0.0,-999.0,99,-99.99,,,0.00,Acu-Link.com,2013-07-03 11:08:00,
2013-07-03 07:38:00,66.2,65.9,30.11,SE,135,0.0,-999.0,99,-99.99,,,0.00,Acu-Link.com,2013-07-03 11:38:00,
2013-07-03 07:54:00,66.2,65.9,30.11,SSE,157,0.0,-999.0,99,-99.99,,,0.00,Acu-Link.com,2013-07-03 11:54:00,
2013-07-03 08:24:00,69.8,69.5,30.12,ESE,112,0.0,-999.0,99,-99.99,,,0.00,Acu-Link.com,2013-07-03 12:24:00,
2013-07-03 08:39:00,71.6,71.3,30.12,NW,315,0.0,-999.0,99,-99.99,,,0.00,Acu-Link.com,2013-07-03 12:39:00,
2013-07-03 08:54:00,73.4,72.8,30.12,ESE,112,0.0,-999.0,98,-99.99,,,0.00,Acu-Link.com,2013-07-03 12:54:00,
2013-07-03 09:10:00,75.2,72.4,30.12,East,90,0.0,-999.0,91,-99.99,,,0.00,Acu-Link.com,2013-07-03 13:10:00,
2013-07-03 09:25:00,78.8,73.9,30.12,ESE,112,0.0,-999.0,85,-99.99,,,0.00,Acu-Link.com,2013-07-03 13:25:00,
2013-07-03 09:56:00,78.8,74.6,30.13,SSE,157,1.6,-999.0,87,-99.99,,,0.00,Acu-Link.com,2013-07-03 13:56:00,
2013-07-03 10:26:00,78.8,72.8,30.13,NE,45,3.1,-999.0,82,-99.99,,,0.00,Acu-Link.com,2013-07-03 14:26:00,
2013-07-03 10:42:00,78.8,74.2,30.13,ESE,112,2.7,-999.0,86,-99.99,,,0.00,Acu-Link.com,2013-07-03 14:42:00,
2013-07-03 11:12:00,78.8,72.1,30.13,SW,225,1.1,-999.0,80,-99.99,,,0.00,Acu-Link.com,2013-07-03 15:12:00,
2013-07-03 11:58:00,80.6,73.1,30.13,SSE,157,0.0,-999.0,78,-99.99,,,0.00,Acu-Link.com,2013-07-03 15:58:00,
2013-07-03 12:13:00,80.6,72.3,30.13,WSW,247,1.6,-999.0,76,-99.99,,,0.00,Acu-Link.com,2013-07-03 16:13:00,
2013-07-03 12:28:00,82.4,76.0,30.13,SSW,202,0.0,-999.0,81,-99.99,,,0.00,Acu-Link.com,2013-07-03 16:28:00,
2013-07-03 12:43:00,84.2,73.8,30.13,WSW,247,2.0,-999.0,71,-99.99,,,0.00,Acu-Link.com,2013-07-03 16:43:00,
2013-07-03 12:59:00,82.4,72.0,30.13,SSE,157,2.0,-999.0,71,-99.99,,,0.00,Acu-Link.com,2013-07-03 16:59:00,
2013-07-03 13:14:00,82.4,73.3,30.13,NE,45,1.1,-999.0,74,-99.99,,,0.00,Acu-Link.com,2013-07-03 17:14:00,
2013-07-03 13:29:00,80.6,72.3,30.13,East,90,0.0,-999.0,76,-99.99,,,0.00,Acu-Link.com,2013-07-03 17:29:00,
2013-07-03 14:00:00,80.6,73.8,30.13,West,270,2.7,-999.0,80,-99.99,,,0.00,Acu-Link.com,2013-07-03 18:00:00,
2013-07-03 14:15:00,80.6,74.6,30.12,SE,135,2.0,-999.0,82,-99.99,,,0.00,Acu-Link.com,2013-07-03 18:15:00,
2013-07-03 14:45:00,82.4,74.4,30.11,East,90,1.6,-999.0,77,-99.99,,,0.00,Acu-Link.com,2013-07-03 18:45:00,
2013-07-03 15:00:00,86.0,75.5,30.11,SSW,202,2.0,-999.0,71,-99.99,,,0.00,Acu-Link.com,2013-07-03 19:00:00,
2013-07-03 15:31:00,82.4,72.4,30.11,SSE,157,1.6,-999.0,72,-99.99,,,0.00,Acu-Link.com,2013-07-03 19:31:00,
2013-07-03 15:46:00,82.4,72.4,30.11,SSW,202,1.1,-999.0,72,-99.99,,,0.00,Acu-Link.com,2013-07-03 19:46:00,
2013-07-03 16:17:00,86.0,72.4,30.11,SSW,202,1.6,-999.0,64,-99.99,,,0.00,Acu-Link.com,2013-07-03 20:17:00,
2013-07-03 16:32:00,86.0,73.7,30.10,South,180,0.0,-999.0,67,-99.99,,,0.00,Acu-Link.com,2013-07-03 20:32:00,
2013-07-03 16:47:00,82.4,71.2,30.10,ENE,67,2.0,-999.0,69,-99.99,,,0.00,Acu-Link.com,2013-07-03 20:47:00,
2013-07-03 17:03:00,82.4,71.6,30.10,NE,45,0.0,-999.0,70,-99.99,,,0.00,Acu-Link.com,2013-07-03 21:03:00,
2013-07-03 17:33:00,82.4,73.3,30.09,ESE,112,0.0,-999.0,74,-99.99,,,0.00,Acu-Link.com,2013-07-03 21:33:00,
2013-07-03 17:48:00,84.2,72.0,30.09,West,270,1.6,-999.0,67,-99.99,,,0.00,Acu-Link.com,2013-07-03 21:48:00,
2013-07-03 18:03:00,84.2,71.6,30.09,SW,225,2.7,-999.0,66,-99.99,,,0.00,Acu-Link.com,2013-07-03 22:03:00,
2013-07-03 18:18:00,86.0,71.4,30.09,West,270,0.0,-999.0,62,-99.99,,,0.00,Acu-Link.com,2013-07-03 22:18:00,
2013-07-03 18:34:00,84.2,71.1,30.09,WSW,247,1.6,-999.0,65,-99.99,,,0.00,Acu-Link.com,2013-07-03 22:34:00,
2013-07-03 19:04:00,82.4,70.8,30.11,NE,45,0.0,-999.0,68,-99.99,,,0.00,Acu-Link.com,2013-07-03 23:04:00,
2013-07-03 19:20:00,82.4,72.0,30.11,ENE,67,0.0,-999.0,71,-99.99,,,0.00,Acu-Link.com,2013-07-03 23:20:00,
2013-07-03 19:35:00,80.6,71.1,30.11,ENE,67,0.0,-999.0,73,-99.99,,,0.00,Acu-Link.com,2013-07-03 23:35:00,
2013-07-03 19:50:00,78.8,70.6,30.11,NE,45,0.0,-999.0,76,-99.99,,,0.00,Acu-Link.com,2013-07-03 23:50:00,
2013-07-03 20:05:00,78.8,71.0,30.10,SE,135,0.0,-999.0,77,-99.99,,,0.00,Acu-Link.com,2013-07-04 00:05:00,
2013-07-03 20:21:00,77.0,70.3,30.11,ENE,67,0.0,-999.0,80,-99.99,,,0.00,Acu-Link.com,2013-07-04 00:21:00,
2013-07-03 20:36:00,77.0,71.1,30.11,ENE,67,0.0,-999.0,82,-99.99,,,0.00,Acu-Link.com,2013-07-04 00:36:00,
2013-07-03 21:06:00,73.4,68.6,30.11,ESE,112,0.0,-999.0,85,-99.99,,,0.00,Acu-Link.com,2013-07-04 01:06:00,
2013-07-03 21:21:00,73.4,69.3,30.11,SE,135,0.0,-999.0,87,-99.99,,,0.00,Acu-Link.com,2013-07-04 01:21:00,
2013-07-03 21:37:00,73.4,69.6,30.12,ESE,112,0.0,-999.0,88,-99.99,,,0.00,Acu-Link.com,2013-07-04 01:37:00,
2013-07-03 21:52:00,71.6,68.5,30.12,SSE,157,0.0,-999.0,90,-99.99,,,0.00,Acu-Link.com,2013-07-04 01:52:00,
2013-07-03 22:07:00,71.6,68.8,30.13,East,90,0.0,-999.0,91,-99.99,,,0.00,Acu-Link.com,2013-07-04 02:07:00,
2013-07-03 22:22:00,71.6,69.1,30.13,NE,45,0.0,-999.0,92,-99.99,,,0.00,Acu-Link.com,2013-07-04 02:22:00,
2013-07-03 22:38:00,71.6,69.5,30.14,SE,135,0.0,-999.0,93,-99.99,,,0.00,Acu-Link.com,2013-07-04 02:38:00,
2013-07-03 22:53:00,71.6,68.8,30.13,SSE,157,0.0,-999.0,91,-99.99,,,0.00,Acu-Link.com,2013-07-04 02:53:00,
2013-07-03 23:08:00,71.6,68.5,30.13,NE,45,0.0,-999.0,90,-99.99,,,0.00,Acu-Link.com,2013-07-04 03:08:00,
2013-07-03 23:24:00,71.6,68.5,30.13,NW,315,0.0,-999.0,90,-99.99,,,0.00,Acu-Link.com,2013-07-04 03:24:00,
2013-07-03 23:54:00,71.6,68.2,30.13,ENE,67,0.0,-999.0,89,-99.99,,,0.00,Acu-Link.com,2013-07-04 03:54:00,